Location: Madrid
(40.4000°N, 3.6830°W)
Time: 13:34:20
(UTC+02:00)

ISS - Pass Details

Date: 24 May 2020
Orbit: 417 x 419 km, 51.6° (Epoch: 31 May)

Event Time Altitude Azimuth Distance (km) Brightness Sun altitude
Rises 23:05:24 0° 304° (NW) 2,365 1.8 -14.9°
Reaches altitude 10° 23:08:33 10° 336° (NNW) 1,502 0.2 -15.3°
Maximum altitude 23:10:02 12° 2° (N) 1,369 -0.6 -15.5°
Drops below altitude 10° 23:11:30 10° 29° (NNE) 1,503 -0.7 -15.7°
Sets 23:14:40 0° 61° (ENE) 2,367 -0.1 -16.1°
Enters shadow 23:14:45 - 61° (ENE) 2,397 -0.1 -16.1°
